| time (UTC) | temp C | wind direction | speed KPH | gust KPH | rain 1hr cm | rain 24hr cm | rain mn cm | humidity % | barometer mb |
| 20260507135744 | 9 | 242 | 6.4 | 9.7 | 0.00 | 0.00 | 0.00 | 66 | 1013.1 |
| 20260507135241 | 9 | 294 | 3.2 | 14.5 | 0.00 | 0.00 | 0.00 | 67 | 1013.1 |
| 20260507134737 | 9 | 224 | 6.4 | 12.9 | 0.00 | 0.00 | 0.00 | 68 | 1013.2 |
| 20260507134234 | 8 | 256 | 1.6 | 9.7 | 0.00 | 0.00 | 0.00 | 69 | 1013.1 |
| 20260507133730 | 8 | 332 | 0.0 | 12.9 | 0.00 | 0.00 | 0.00 | 71 | 1013.0 |
| 20260507133226 | 8 | 331 | 3.2 | 11.3 | 0.00 | 0.00 | 0.00 | 72 | 1013.0 |
| 20260507132724 | 7 | 288 | 9.7 | 12.9 | 0.00 | 0.00 | 0.00 | 72 | 1013.0 |
| 20260507132221 | 7 | 313 | 1.6 | 9.7 | 0.00 | 0.00 | 0.00 | 74 | 1013.0 |
| 20260507131717 | 7 | 221 | 8.0 | 17.7 | 0.00 | 0.00 | 0.00 | 74 | 1012.9 |
| 20260507131215 | 6 | 290 | 4.8 | 9.7 | 0.00 | 0.00 | 0.00 | 75 | 1012.9 |
| 20260507130711 | 6 | 319 | 4.8 | 6.4 | 0.00 | 0.00 | 0.00 | 76 | 1012.9 |
| 20260507130209 | 6 | 247 | 8.0 | 11.3 | 0.00 | 0.00 | 0.00 | 78 | 1013.1 |
| 20260507125708 | 5 | 264 | 3.2 | 14.5 | 0.00 | 0.00 | 0.00 | 79 | 1013.2 |
| 20260507125205 | 5 | 239 | 3.2 | 6.4 | 0.00 | 0.00 | 0.00 | 80 | 1013.0 |
| 20260507124701 | 5 | 267 | 4.8 | 20.9 | 0.00 | 0.00 | 0.00 | 81 | 1013.1 |
| 20260507124159 | 5 | 265 | 6.4 | 11.3 | 0.00 | 0.00 | 0.00 | 81 | 1013.3 |
| 20260507123657 | 5 | 261 | 6.4 | 11.3 | 0.00 | 0.00 | 0.00 | 82 | 1013.2 |
| 20260507123154 | 5 | 230 | 4.8 | 12.9 | 0.00 | 0.00 | 0.00 | 82 | 1013.3 |
| 20260507122649 | 4 | 265 | 6.4 | 11.3 | 0.00 | 0.00 | 0.00 | 83 | 1013.3 |
| 20260507122144 | 4 | 303 | 3.2 | 9.7 | 0.00 | 0.00 | 0.00 | 83 | 1013.3 |
| 20260507121641 | 4 | 253 | 8.0 | 12.9 | 0.00 | 0.00 | 0.00 | 83 | 1013.2 |
| 20260507121137 | 4 | 212 | 6.4 | 11.3 | 0.00 | 0.00 | 0.00 | 83 | 1013.3 |
| 20260507120633 | 4 | 257 | 6.4 | 11.3 | 0.00 | 0.00 | 0.00 | 83 | 1013.2 |
| 20260507120130 | 4 | 266 | 4.8 | 6.4 | 0.00 | 0.00 | 0.00 | 83 | 1013.4 |
| 20260507115627 | 4 | 288 | 4.8 | 11.3 | 0.00 | 0.00 | 0.00 | 83 | 1013.2 |
| 20260507115122 | 3 | 218 | 6.4 | 9.7 | 0.00 | 0.00 | 0.00 | 83 | 1013.4 |
| 20260507114618 | 3 | 272 | 6.4 | 11.3 | 0.00 | 0.00 | 0.00 | 84 | 1013.5 |
| 20260507114116 | 3 | 250 | 3.2 | 9.7 | 0.00 | 0.00 | 0.00 | 84 | 1013.6 |
| 20260507113613 | 3 | 274 | 4.8 | 11.3 | 0.00 | 0.00 | 0.00 | 84 | 1013.6 |
| 20260507113110 | 3 | 290 | 3.2 | 4.8 | 0.00 | 0.00 | 0.00 | 84 | 1013.5 |
| 20260507112608 | 3 | 285 | 3.2 | 6.4 | 0.00 | 0.00 | 0.00 | 84 | 1013.6 |
| 20260507112104 | 3 | 256 | 3.2 | 4.8 | 0.00 | 0.00 | 0.00 | 84 | 1013.5 |
| 20260507111602 | 3 | 257 | 3.2 | 6.4 | 0.00 | 0.00 | 0.00 | 84 | 1013.7 |
| 20260507111058 | 3 | 306 | 3.2 | 6.4 | 0.00 | 0.00 | 0.00 | 84 | 1013.6 |
| 20260507110554 | 3 | 241 | 6.4 | 12.9 | 0.00 | 0.00 | 0.00 | 84 | 1013.5 |
| 20260507110051 | 3 | 244 | 8.0 | 11.3 | 0.00 | 0.00 | 0.00 | 85 | 1014.0 |
| 20260507105548 | 3 | 277 | 1.6 | 6.4 | 0.00 | 0.00 | 0.00 | 84 | 1014.0 |
| 20260507105044 | 4 | 290 | 3.2 | 6.4 | 0.00 | 0.00 | 0.00 | 83 | 1014.0 |
| 20260507104541 | 4 | 295 | 4.8 | 6.4 | 0.00 | 0.00 | 0.00 | 83 | 1013.9 |
| 20260507104037 | 4 | 262 | 4.8 | 11.3 | 0.00 | 0.00 | 0.00 | 82 | 1014.3 |
| 20260507103534 | 4 | 258 | 4.8 | 11.3 | 0.00 | 0.00 | 0.00 | 82 | 1014.3 |
| 20260507103030 | 4 | 284 | 6.4 | 11.3 | 0.00 | 0.00 | 0.00 | 83 | 1014.4 |
| 20260507102527 | 4 | 301 | 3.2 | 6.4 | 0.00 | 0.00 | 0.00 | 83 | 1014.3 |
| 20260507102023 | 4 | 241 | 3.2 | 9.7 | 0.00 | 0.00 | 0.00 | 83 | 1014.3 |
| 20260507101519 | 4 | 245 | 4.8 | 6.4 | 0.00 | 0.00 | 0.00 | 83 | 1014.4 |
| 20260507101015 | 4 | 271 | 1.6 | 6.4 | 0.00 | 0.00 | 0.00 | 83 | 1014.7 |
| 20260507100513 | 5 | 285 | 3.2 | 9.7 | 0.00 | 0.00 | 0.00 | 83 | 1014.6 |
| 20260507100011 | 5 | 312 | 1.6 | 4.8 | 0.00 | 0.00 | 0.00 | 83 | 1014.7 |
| 20260507095508 | 5 | 307 | 1.6 | 6.4 | 0.00 | 0.00 | 0.00 | 83 | 1014.7 |
| 20260507095005 | 5 | 304 | 4.8 | 6.4 | 0.00 | 0.00 | 0.00 | 83 | 1014.7 |
| 20260507094501 | 5 | 288 | 4.8 | 9.7 | 0.00 | 0.00 | 0.00 | 83 | 1014.7 |
| 20260507093958 | 5 | 265 | 3.2 | 9.7 | 0.00 | 0.00 | 0.00 | 83 | 1014.9 |
| 20260507093456 | 5 | 317 | 4.8 | 12.9 | 0.00 | 0.00 | 0.00 | 83 | 1015.0 |
| 20260507092954 | 5 | 293 | 1.6 | 3.2 | 0.00 | 0.00 | 0.00 | 83 | 1015.1 |
| 20260507092450 | 5 | 262 | 4.8 | 6.4 | 0.00 | 0.00 | 0.00 | 83 | 1015.2 |
| 20260507091947 | 5 | 239 | 3.2 | 6.4 | 0.00 | 0.00 | 0.00 | 83 | 1015.0 |
| 20260507091444 | 5 | 274 | 3.2 | 9.7 | 0.00 | 0.00 | 0.00 | 83 | 1015.2 |
| 20260507090940 | 5 | 284 | 3.2 | 9.7 | 0.00 | 0.00 | 0.00 | 82 | 1015.3 |
| 20260507090435 | 5 | 303 | 4.8 | 9.7 | 0.00 | 0.00 | 0.00 | 82 | 1015.2 |
| 20260507085932 | 5 | 217 | 4.8 | 6.4 | 0.00 | 0.00 | 0.00 | 82 | 1015.1 |
| 20260507085430 | 5 | 326 | 3.2 | 6.4 | 0.00 | 0.00 | 0.00 | 83 | 1015.3 |
| 20260507084927 | 5 | 283 | 1.6 | 6.4 | 0.00 | 0.00 | 0.00 | 83 | 1015.3 |
| 20260507084424 | 5 | 249 | 6.4 | 9.7 | 0.00 | 0.00 | 0.00 | 83 | 1015.4 |
| 20260507083920 | 5 | 276 | 3.2 | 6.4 | 0.00 | 0.00 | 0.00 | 82 | 1015.5 |
| 20260507083417 | 5 | 279 | 4.8 | 9.7 | 0.00 | 0.00 | 0.00 | 82 | 1015.4 |
| 20260507082913 | 5 | 226 | 3.2 | 6.4 | 0.00 | 0.00 | 0.00 | 82 | 1015.5 |
| 20260507082409 | 5 | 249 | 6.4 | 9.7 | 0.00 | 0.00 | 0.00 | 82 | 1015.3 |
| 20260507081906 | 5 | 283 | 1.6 | 6.4 | 0.00 | 0.00 | 0.00 | 82 | 1015.6 |
| 20260507081402 | 5 | 281 | 3.2 | 4.8 | 0.00 | 0.00 | 0.00 | 82 | 1015.5 |
| 20260507080859 | 5 | 283 | 4.8 | 11.3 | 0.00 | 0.00 | 0.00 | 82 | 1015.8 |
| 20260507080355 | 5 | 230 | 8.0 | 11.3 | 0.00 | 0.00 | 0.00 | 82 | 1015.9 |
| 20260507075851 | 5 | 288 | 4.8 | 6.4 | 0.00 | 0.00 | 0.00 | 82 | 1015.8 |
| 20260507075347 | 5 | 230 | 6.4 | 12.9 | 0.00 | 0.00 | 0.00 | 82 | 1015.9 |
| 20260507074843 | 5 | 306 | 4.8 | 9.7 | 0.00 | 0.00 | 0.00 | 82 | 1015.9 |
| 20260507074341 | 5 | 268 | 3.2 | 9.7 | 0.00 | 0.00 | 0.00 | 82 | 1015.8 |
| 20260507073838 | 5 | 292 | 4.8 | 9.7 | 0.00 | 0.00 | 0.00 | 82 | 1016.2 |
| 20260507073334 | 5 | 267 | 3.2 | 9.7 | 0.00 | 0.00 | 0.00 | 82 | 1016.2 |
| 20260507072832 | 5 | 239 | 6.4 | 11.3 | 0.00 | 0.00 | 0.00 | 82 | 1016.2 |
| 20260507072329 | 5 | 225 | 9.7 | 12.9 | 0.00 | 0.00 | 0.00 | 82 | 1016.5 |
| 20260507071827 | 5 | 303 | 6.4 | 9.7 | 0.00 | 0.00 | 0.00 | 82 | 1016.5 |
| 20260507071324 | 5 | 288 | 3.2 | 6.4 | 0.00 | 0.00 | 0.00 | 82 | 1016.6 |
| 20260507070820 | 5 | 247 | 3.2 | 12.9 | 0.00 | 0.00 | 0.00 | 82 | 1016.9 |
| 20260507070317 | 5 | 302 | 3.2 | 6.4 | 0.00 | 0.00 | 0.00 | 82 | 1016.8 |
| 20260507065814 | 6 | 280 | 3.2 | 9.7 | 0.00 | 0.00 | 0.00 | 82 | 1016.9 |
| 20260507065310 | 6 | 285 | 9.7 | 20.9 | 0.00 | 0.00 | 0.00 | 82 | 1016.9 |
| 20260507064808 | 6 | 330 | 6.4 | 11.3 | 0.00 | 0.00 | 0.00 | 82 | 1017.0 |
| 20260507064306 | 6 | 255 | 3.2 | 12.9 | 0.00 | 0.00 | 0.00 | 81 | 1017.1 |
| 20260507063804 | 6 | 238 | 4.8 | 11.3 | 0.00 | 0.00 | 0.00 | 81 | 1017.0 |
| 20260507063301 | 6 | 269 | 3.2 | 9.7 | 0.00 | 0.00 | 0.00 | 81 | 1016.9 |
| 20260507062757 | 6 | 268 | 3.2 | 6.4 | 0.00 | 0.00 | 0.00 | 81 | 1017.0 |
| 20260507062254 | 6 | 316 | 4.8 | 9.7 | 0.00 | 0.00 | 0.00 | 81 | 1017.1 |
| 20260507061753 | 6 | 292 | 3.2 | 9.7 | 0.00 | 0.00 | 0.00 | 81 | 1017.4 |
| 20260507061250 | 6 | 249 | 3.2 | 6.4 | 0.00 | 0.00 | 0.00 | 80 | 1017.1 |
| 20260507060748 | 6 | 248 | 4.8 | 11.3 | 0.00 | 0.00 | 0.00 | 80 | 1017.2 |
| 20260507060244 | 6 | 258 | 1.6 | 9.7 | 0.00 | 0.00 | 0.00 | 80 | 1017.4 |
| 20260507055741 | 6 | 291 | 3.2 | 6.4 | 0.00 | 0.00 | 0.00 | 80 | 1017.5 |
| 20260507055236 | 6 | 299 | 6.4 | 11.3 | 0.00 | 0.00 | 0.00 | 79 | 1017.4 |
| 20260507054733 | 6 | 333 | 3.2 | 6.4 | 0.00 | 0.00 | 0.00 | 79 | 1017.4 |
| 20260507054230 | 6 | 275 | 6.4 | 11.3 | 0.00 | 0.00 | 0.00 | 79 | 1017.5 |
| 20260507053727 | 6 | 285 | 4.8 | 6.4 | 0.00 | 0.00 | 0.00 | 79 | 1017.4 |
| 20260507053225 | 6 | 293 | 6.4 | 11.3 | 0.00 | 0.00 | 0.00 | 78 | 1017.5 |
| 20260507052724 | 6 | 272 | 3.2 | 9.7 | 0.00 | 0.00 | 0.00 | 78 | 1017.5 |
| 20260507052219 | 6 | 273 | 4.8 | 14.5 | 0.00 | 0.00 | 0.00 | 78 | 1017.5 |
| 20260507051717 | 6 | 284 | 3.2 | 9.7 | 0.00 | 0.00 | 0.00 | 77 | 1017.8 |
| 20260507051214 | 6 | 237 | 6.4 | 12.9 | 0.00 | 0.00 | 0.00 | 77 | 1017.6 |
| 20260507050710 | 6 | 292 | 4.8 | 6.4 | 0.00 | 0.00 | 0.00 | 76 | 1017.5 |
| 20260507050208 | 6 | 254 | 4.8 | 11.3 | 0.00 | 0.00 | 0.00 | 75 | 1017.5 |
| 20260507045704 | 7 | 254 | 4.8 | 11.3 | 0.00 | 0.00 | 0.00 | 75 | 1017.7 |
| 20260507045200 | 7 | 261 | 3.2 | 9.7 | 0.00 | 0.00 | 0.00 | 74 | 1017.7 |
| 20260507044658 | 7 | 311 | 4.8 | 9.7 | 0.00 | 0.00 | 0.00 | 73 | 1017.8 |
| 20260507044154 | 7 | 268 | 8.0 | 12.9 | 0.00 | 0.00 | 0.00 | 72 | 1017.9 |
| 20260507043651 | 6 | 288 | 4.8 | 12.9 | 0.00 | 0.00 | 0.00 | 71 | 1018.0 |
| 20260507043148 | 6 | 308 | 3.2 | 4.8 | 0.00 | 0.00 | 0.00 | 70 | 1017.9 |
| 20260507042644 | 7 | 277 | 4.8 | 11.3 | 0.00 | 0.00 | 0.00 | 69 | 1017.9 |
| 20260507042139 | 7 | 305 | 3.2 | 12.9 | 0.00 | 0.00 | 0.00 | 69 | 1018.0 |
| 20260507041636 | 7 | 265 | 4.8 | 6.4 | 0.00 | 0.00 | 0.00 | 68 | 1018.1 |
| 20260507041132 | 7 | 295 | 3.2 | 4.8 | 0.00 | 0.00 | 0.00 | 67 | 1018.0 |
| 20260507040630 | 7 | 285 | 3.2 | 6.4 | 0.00 | 0.00 | 0.00 | 66 | 1017.9 |
| 20260507040126 | 7 | 279 | 4.8 | 9.7 | 0.00 | 0.00 | 0.00 | 66 | 1018.2 |
| 20260507035622 | 7 | 263 | 3.2 | 4.8 | 0.00 | 0.00 | 0.00 | 65 | 1018.2 |
| 20260507035118 | 7 | 283 | 4.8 | 6.4 | 0.00 | 0.00 | 0.00 | 64 | 1018.3 |
| 20260507034615 | 7 | 269 | 3.2 | 4.8 | 0.00 | 0.00 | 0.00 | 64 | 1018.2 |
| 20260507034113 | 7 | 291 | 1.6 | 6.4 | 0.00 | 0.00 | 0.00 | 63 | 1018.3 |
| 20260507033611 | 8 | 269 | 4.8 | 6.4 | 0.00 | 0.00 | 0.00 | 63 | 1018.2 |
| 20260507033108 | 8 | 281 | 3.2 | 6.4 | 0.00 | 0.00 | 0.00 | 63 | 1018.4 |
| 20260507032605 | 8 | 249 | 4.8 | 9.7 | 0.00 | 0.00 | 0.00 | 62 | 1018.4 |
| 20260507032101 | 8 | 286 | 3.2 | 6.4 | 0.00 | 0.00 | 0.00 | 62 | 1018.4 |
| 20260507031558 | 8 | 262 | 3.2 | 4.8 | 0.00 | 0.00 | 0.00 | 62 | 1018.4 |
| 20260507031055 | 8 | 231 | 4.8 | 6.4 | 0.00 | 0.00 | 0.00 | 61 | 1018.3 |
| 20260507030551 | 8 | 277 | 6.4 | 11.3 | 0.00 | 0.00 | 0.00 | 61 | 1018.4 |
| 20260507030049 | 8 | 287 | 3.2 | 4.8 | 0.00 | 0.00 | 0.00 | 61 | 1018.3 |
| 20260507025546 | 8 | 309 | 1.6 | 4.8 | 0.00 | 0.00 | 0.00 | 61 | 1018.4 |
| 20260507025043 | 8 | 252 | 3.2 | 9.7 | 0.00 | 0.00 | 0.00 | 61 | 1018.2 |
| 20260507024541 | 8 | 272 | 3.2 | 9.7 | 0.00 | 0.00 | 0.00 | 61 | 1018.2 |
| 20260507024038 | 8 | 298 | 3.2 | 6.4 | 0.00 | 0.00 | 0.00 | 61 | 1018.3 |
| 20260507023533 | 9 | 266 | 4.8 | 6.4 | 0.00 | 0.00 | 0.00 | 61 | 1018.2 |
| 20260507023032 | 9 | 259 | 3.2 | 6.4 | 0.00 | 0.00 | 0.00 | 61 | 1018.1 |
| 20260507022528 | 9 | 253 | 3.2 | 4.8 | 0.00 | 0.00 | 0.00 | 61 | 1018.2 |
| 20260507022028 | 9 | 236 | 4.8 | 9.7 | 0.00 | 0.00 | 0.00 | 61 | 1018.0 |
| 20260507021525 | 10 | 285 | 1.6 | 9.7 | 0.00 | 0.00 | 0.00 | 62 | 1018.2 |
| 20260507021022 | 10 | 302 | 3.2 | 4.8 | 0.00 | 0.00 | 0.00 | 62 | 1018.0 |
| 20260507020519 | 10 | 216 | 6.4 | 9.7 | 0.00 | 0.00 | 0.00 | 62 | 1018.2 |
| 20260507020015 | 10 | 263 | 3.2 | 9.7 | 0.00 | 0.00 | 0.00 | 61 | 1017.9 |
| 20260507015514 | 10 | 235 | 4.8 | 6.4 | 0.00 | 0.00 | 0.00 | 61 | 1018.1 |
| 20260507015011 | 10 | 281 | 4.8 | 6.4 | 0.00 | 0.00 | 0.00 | 60 | 1018.1 |
| 20260507014507 | 10 | 315 | 3.2 | 6.4 | 0.00 | 0.00 | 0.00 | 59 | 1018.1 |
| 20260507014003 | 10 | 239 | 3.2 | 6.4 | 0.00 | 0.00 | 0.00 | 58 | 1018.1 |
| 20260507013500 | 10 | 310 | 3.2 | 4.8 | 0.00 | 0.00 | 0.00 | 57 | 1018.1 |
| 20260507012957 | 10 | 264 | 3.2 | 4.8 | 0.00 | 0.00 | 0.00 | 56 | 1018.1 |
| 20260507012454 | 11 | 273 | 1.6 | 6.4 | 0.00 | 0.00 | 0.00 | 55 | 1018.0 |
| 20260507011951 | 11 | 267 | 4.8 | 6.4 | 0.00 | 0.00 | 0.00 | 54 | 1018.1 |
| 20260507011448 | 11 | 292 | 3.2 | 3.2 | 0.00 | 0.00 | 0.00 | 53 | 1018.0 |
| 20260507010943 | 11 | 241 | 4.8 | 9.7 | 0.00 | 0.00 | 0.00 | 52 | 1018.0 |
| 20260507010438 | 11 | 296 | 4.8 | 9.7 | 0.00 | 0.00 | 0.00 | 52 | 1018.0 |
| 20260507005935 | 11 | 241 | 8.0 | 11.3 | 0.00 | 0.00 | 0.00 | 51 | 1017.9 |
| 20260507005433 | 11 | 279 | 3.2 | 11.3 | 0.00 | 0.00 | 0.00 | 51 | 1017.9 |
| 20260507004929 | 12 | 299 | 3.2 | 9.7 | 0.00 | 0.00 | 0.00 | 50 | 1017.8 |
| 20260507004426 | 12 | 288 | 3.2 | 6.4 | 0.00 | 0.00 | 0.00 | 49 | 1017.9 |
| 20260507003923 | 12 | 175 | 1.6 | 4.8 | 0.00 | 0.00 | 0.00 | 48 | 1018.0 |
| 20260507003418 | 12 | 301 | 1.6 | 12.9 | 0.00 | 0.00 | 0.00 | 48 | 1017.8 |
| 20260507002914 | 12 | 313 | 1.6 | 11.3 | 0.00 | 0.00 | 0.00 | 48 | 1018.0 |
| 20260507002410 | 12 | 330 | 0.0 | 6.4 | 0.00 | 0.00 | 0.00 | 48 | 1018.1 |
| 20260507001907 | 12 | 288 | 3.2 | 6.4 | 0.00 | 0.00 | 0.00 | 48 | 1018.0 |
| 20260507001404 | 12 | 349 | 1.6 | 3.2 | 0.00 | 0.00 | 0.00 | 47 | 1017.9 |
| 20260507000902 | 12 | 227 | 6.4 | 9.7 | 0.00 | 0.00 | 0.00 | 45 | 1017.9 |
| 20260507000357 | 12 | 245 | 1.6 | 11.3 | 0.00 | 0.00 | 0.00 | 46 | 1017.9 |
| 20260506235853 | 12 | 285 | 1.6 | 11.3 | 0.00 | 0.00 | 0.00 | 46 | 1018.0 |
| 20260506235350 | 13 | 328 | 1.6 | 4.8 | 0.00 | 0.00 | 0.00 | 46 | 1018.1 |
| 20260506234845 | 13 | 245 | 3.2 | 4.8 | 0.00 | 0.00 | 0.00 | 45 | 1018.2 |
| 20260506234344 | 13 | 279 | 3.2 | 11.3 | 0.00 | 0.00 | 0.00 | 44 | 1018.3 |
| 20260506233841 | 12 | 286 | 3.2 | 6.4 | 0.00 | 0.00 | 0.00 | 45 | 1018.2 |
| 20260506233337 | 12 | 265 | 3.2 | 6.4 | 0.00 | 0.00 | 0.00 | 45 | 1018.3 |
| 20260506232835 | 12 | 288 | 4.8 | 11.3 | 0.00 | 0.00 | 0.00 | 44 | 1018.2 |
| 20260506232330 | 13 | 271 | 4.8 | 6.4 | 0.00 | 0.00 | 0.00 | 42 | 1018.3 |
| 20260506231826 | 14 | 281 | 4.8 | 6.4 | 0.00 | 0.00 | 0.00 | 43 | 1018.3 |
| 20260506231324 | 14 | 352 | 1.6 | 3.2 | 0.00 | 0.00 | 0.00 | 41 | 1018.3 |
| 20260506230821 | 13 | 293 | 1.6 | 11.3 | 0.00 | 0.00 | 0.00 | 42 | 1018.2 |
| 20260506230318 | 14 | 295 | 1.6 | 3.2 | 0.00 | 0.00 | 0.00 | 42 | 1018.2 |
| 20260506225814 | 13 | 237 | 3.2 | 6.4 | 0.00 | 0.00 | 0.00 | 41 | 1018.4 |
| 20260506225312 | 13 | 306 | 0.0 | 1.6 | 0.00 | 0.00 | 0.00 | 44 | 1018.3 |
| 20260506224808 | 12 | 283 | 3.2 | 6.4 | 0.00 | 0.00 | 0.00 | 44 | 1018.4 |
| 20260506224306 | 13 | 317 | 0.0 | 3.2 | 0.00 | 0.00 | 0.00 | 44 | 1018.5 |
| 20260506223802 | 13 | 294 | 3.2 | 3.2 | 0.00 | 0.00 | 0.00 | 44 | 1018.4 |
| 20260506223258 | 13 | 286 | 1.6 | 4.8 | 0.00 | 0.00 | 0.00 | 41 | 1018.5 |
| 20260506222755 | 13 | 306 | 0.0 | 4.8 | 0.00 | 0.00 | 0.00 | 42 | 1018.5 |
| 20260506222250 | 13 | 344 | 0.0 | 1.6 | 0.00 | 0.00 | 0.00 | 43 | 1018.4 |
| 20260506221748 | 14 | 323 | 1.6 | 4.8 | 0.00 | 0.00 | 0.00 | 41 | 1018.4 |
| 20260506221245 | 14 | 259 | 3.2 | 9.7 | 0.00 | 0.00 | 0.00 | 40 | 1018.6 |
| 20260506220743 | 14 | 294 | 4.8 | 6.4 | 0.00 | 0.00 | 0.00 | 39 | 1018.7 |
| 20260506220237 | 14 | 245 | 4.8 | 6.4 | 0.00 | 0.00 | 0.00 | 38 | 1018.9 |
| 20260506215734 | 13 | 257 | 4.8 | 6.4 | 0.00 | 0.00 | 0.00 | 39 | 1018.9 |
| 20260506215231 | 14 | 316 | 0.0 | 1.6 | 0.00 | 0.00 | 0.00 | 39 | 1019.0 |
| 20260506214727 | 15 | 292 | 3.2 | 6.4 | 0.00 | 0.00 | 0.00 | 35 | 1018.7 |
| 20260506214225 | 15 | 301 | 3.2 | 11.3 | 0.00 | 0.00 | 0.00 | 35 | 1018.9 |
| 20260506213722 | 15 | 267 | 3.2 | 9.7 | 0.00 | 0.00 | 0.00 | 34 | 1018.9 |
| 20260506213219 | 15 | 299 | 8.0 | 9.7 | 0.00 | 0.00 | 0.00 | 36 | 1018.9 |
| 20260506212716 | 14 | 309 | 0.0 | 3.2 | 0.00 | 0.00 | 0.00 | 36 | 1018.9 |
| 20260506212212 | 13 | 318 | 0.0 | 4.8 | 0.00 | 0.00 | 0.00 | 37 | 1018.9 |
| 20260506211707 | 13 | 342 | 1.6 | 3.2 | 0.00 | 0.00 | 0.00 | 37 | 1019.2 |
| 20260506211204 | 14 | 300 | 1.6 | 3.2 | 0.00 | 0.00 | 0.00 | 38 | 1019.1 |
| 20260506210701 | 14 | 234 | 3.2 | 6.4 | 0.00 | 0.00 | 0.00 | 34 | 1019.2 |
| 20260506210158 | 13 | 243 | 6.4 | 12.9 | 0.00 | 0.00 | 0.00 | 34 | 1019.3 |
| 20260506205656 | 13 | 277 | 4.8 | 9.7 | 0.00 | 0.00 | 0.00 | 35 | 1019.4 |
| 20260506205155 | 13 | 243 | 4.8 | 9.7 | 0.00 | 0.00 | 0.00 | 37 | 1019.7 |
| 20260506204653 | 13 | 273 | 3.2 | 9.7 | 0.00 | 0.00 | 0.00 | 37 | 1019.4 |
| 20260506204150 | 13 | 281 | 1.6 | 4.8 | 0.00 | 0.00 | 0.00 | 36 | 1019.5 |
| 20260506203648 | 14 | 346 | 3.2 | 6.4 | 0.00 | 0.00 | 0.00 | 36 | 1019.5 |
| 20260506203145 | 14 | 257 | 1.6 | 3.2 | 0.00 | 0.00 | 0.00 | 37 | 1019.6 |
| 20260506202643 | 15 | 300 | 1.6 | 6.4 | 0.00 | 0.00 | 0.00 | 33 | 1019.6 |
| 20260506202139 | 15 | 333 | 1.6 | 4.8 | 0.00 | 0.00 | 0.00 | 34 | 1019.6 |
| 20260506201636 | 15 | 310 | 3.2 | 4.8 | 0.00 | 0.00 | 0.00 | 34 | 1019.8 |
| 20260506201132 | 15 | 203 | 3.2 | 9.7 | 0.00 | 0.00 | 0.00 | 35 | 1019.8 |
| 20260506200629 | 15 | 324 | 1.6 | 3.2 | 0.00 | 0.00 | 0.00 | 40 | 1019.9 |
| 20260506200126 | 14 | 288 | 1.6 | 9.7 | 0.00 | 0.00 | 0.00 | 35 | 1019.9 |
| 20260506195622 | 15 | 350 | 1.6 | 4.8 | 0.00 | 0.00 | 0.00 | 35 | 1020.1 |
| 20260506195119 | 15 | 296 | 1.6 | 16.1 | 0.00 | 0.00 | 0.00 | 39 | 1019.9 |
| 20260506194616 | 15 | 328 | 0.0 | 9.7 | 0.00 | 0.00 | 0.00 | 39 | 1020.0 |
| 20260506194113 | 15 | 320 | 1.6 | 14.5 | 0.00 | 0.00 | 0.00 | 39 | 1020.2 |
| 20260506193611 | 13 | 273 | 1.6 | 11.3 | 0.00 | 0.00 | 0.00 | 37 | 1020.2 |
| 20260506193108 | 13 | 318 | 3.2 | 6.4 | 0.00 | 0.00 | 0.00 | 38 | 1020.0 |
| 20260506192604 | 12 | 288 | 4.8 | 12.9 | 0.00 | 0.00 | 0.00 | 38 | 1020.1 |
| 20260506192100 | 12 | 298 | 0.0 | 4.8 | 0.00 | 0.00 | 0.00 | 37 | 1020.1 |
| 20260506191557 | 12 | 278 | 3.2 | 6.4 | 0.00 | 0.00 | 0.00 | 38 | 1020.2 |
| 20260506191053 | 12 | 4 | 3.2 | 3.2 | 0.00 | 0.00 | 0.00 | 38 | 1020.5 |
| 20260506190550 | 12 | 250 | 3.2 | 9.7 | 0.00 | 0.00 | 0.00 | 39 | 1020.7 |
| 20260506190047 | 12 | 256 | 1.6 | 3.2 | 0.00 | 0.00 | 0.00 | 37 | 1020.5 |
| 20260506185544 | 13 | 297 | 1.6 | 1.6 | 0.00 | 0.00 | 0.00 | 41 | 1020.7 |
| 20260506185041 | 13 | 331 | 1.6 | 3.2 | 0.00 | 0.00 | 0.00 | 38 | 1020.7 |
| 20260506184538 | 12 | 236 | 3.2 | 4.8 | 0.00 | 0.00 | 0.00 | 38 | 1020.6 |
| 20260506184036 | 12 | 298 | 0.0 | 1.6 | 0.00 | 0.00 | 0.00 | 38 | 1021.0 |
| 20260506183531 | 12 | 302 | 1.6 | 4.8 | 0.00 | 0.00 | 0.00 | 39 | 1021.0 |
| 20260506183028 | 12 | 357 | 0.0 | 3.2 | 0.00 | 0.00 | 0.00 | 39 | 1020.9 |
| 20260506182526 | 12 | 336 | 1.6 | 3.2 | 0.00 | 0.00 | 0.00 | 38 | 1021.0 |
| 20260506182022 | 13 | 315 | 1.6 | 1.6 | 0.00 | 0.00 | 0.00 | 37 | 1020.9 |
| 20260506181520 | 13 | 295 | 3.2 | 6.4 | 0.00 | 0.00 | 0.00 | 41 | 1020.9 |
| 20260506181017 | 12 | 316 | 0.0 | 4.8 | 0.00 | 0.00 | 0.00 | 38 | 1020.9 |
| 20260506180514 | 11 | 354 | 0.0 | 1.6 | 0.00 | 0.00 | 0.00 | 39 | 1021.1 |
| 20260506180010 | 12 | 333 | 1.6 | 1.6 | 0.00 | 0.00 | 0.00 | 38 | 1020.9 |
| 20260506175507 | 12 | 314 | 1.6 | 4.8 | 0.00 | 0.00 | 0.00 | 40 | 1021.0 |
| 20260506175003 | 12 | 256 | 1.6 | 4.8 | 0.00 | 0.00 | 0.00 | 36 | 1021.2 |
| 20260506174502 | 11 | 304 | 3.2 | 6.4 | 0.00 | 0.00 | 0.00 | 37 | 1021.3 |
| 20260506173957 | 11 | 337 | 1.6 | 1.6 | 0.00 | 0.00 | 0.00 | 40 | 1021.3 |
| 20260506173455 | 11 | 318 | 1.6 | 3.2 | 0.00 | 0.00 | 0.00 | 39 | 1021.4 |
| 20260506172952 | 11 | 352 | 1.6 | 6.4 | 0.00 | 0.00 | 0.00 | 38 | 1021.3 |
| 20260506172450 | 12 | 357 | 0.0 | 3.2 | 0.00 | 0.00 | 0.00 | 38 | 1021.1 |
| 20260506171945 | 11 | 2 | 1.6 | 3.2 | 0.00 | 0.00 | 0.00 | 37 | 1021.3 |
| 20260506171443 | 11 | 267 | 1.6 | 3.2 | 0.00 | 0.00 | 0.00 | 38 | 1021.2 |
| 20260506170941 | 11 | 325 | 1.6 | 6.4 | 0.00 | 0.00 | 0.00 | 42 | 1021.3 |
| 20260506170437 | 11 | 0 | 1.6 | 4.8 | 0.00 | 0.00 | 0.00 | 38 | 1021.3 |
| 20260506165936 | 10 | 320 | 1.6 | 1.6 | 0.00 | 0.00 | 0.00 | 39 | 1021.2 |
| 20260506165434 | 10 | 324 | 0.0 | 3.2 | 0.00 | 0.00 | 0.00 | 41 | 1021.4 |
| 20260506164924 | 11 | 352 | 1.6 | 6.4 | 0.00 | 0.00 | 0.00 | 39 | 1021.4 |
| 20260506164421 | 10 | 5 | 1.6 | 3.2 | 0.00 | 0.00 | 0.00 | 38 | 1021.2 |
| 20260506163919 | 10 | 329 | 0.0 | 3.2 | 0.00 | 0.00 | 0.00 | 40 | 1021.3 |
| 20260506163413 | 10 | 11 | 1.6 | 6.4 | 0.00 | 0.00 | 0.00 | 38 | 1021.3 |
| 20260506162908 | 11 | 350 | 6.4 | 9.7 | 0.00 | 0.00 | 0.00 | 38 | 1021.3 |
| 20260506162407 | 11 | 310 | 1.6 | 3.2 | 0.00 | 0.00 | 0.00 | 38 | 1021.1 |
| 20260506161904 | 11 | 347 | 1.6 | 1.6 | 0.00 | 0.00 | 0.00 | 40 | 1021.1 |
| 20260506161401 | 11 | 357 | 3.2 | 3.2 | 0.00 | 0.00 | 0.00 | 38 | 1021.1 |
| 20260506160853 | 11 | 102 | 3.2 | 4.8 | 0.00 | 0.00 | 0.00 | 39 | 1021.1 |
| 20260506160350 | 11 | 17 | 3.2 | 4.8 | 0.00 | 0.00 | 0.00 | 39 | 1021.1 |
| 20260506155848 | 11 | 342 | 1.6 | 3.2 | 0.00 | 0.00 | 0.00 | 36 | 1021.2 |
| 20260506155345 | 11 | 9 | 1.6 | 4.8 | 0.00 | 0.00 | 0.00 | 37 | 1021.2 |
| 20260506153502 | 11 | 302 | 0.0 | 1.6 | 0.00 | 0.00 | 0.00 | 39 | 1021.3 |
| 20260506153000 | 10 | 347 | 1.6 | 4.8 | 0.00 | 0.00 | 0.00 | 39 | 1021.4 |
| 20260506152456 | 11 | 359 | 1.6 | 1.6 | 0.00 | 0.00 | 0.00 | 41 | 1021.3 |
| 20260506151954 | 10 | 318 | 1.6 | 1.6 | 0.00 | 0.00 | 0.00 | 42 | 1021.3 |
| 20260506151451 | 10 | 16 | 1.6 | 3.2 | 0.00 | 0.00 | 0.00 | 39 | 1021.4 |
| 20260506150949 | 10 | 343 | 1.6 | 1.6 | 0.00 | 0.00 | 0.00 | 41 | 1021.4 |
| 20260506150445 | 10 | 288 | 0.0 | 3.2 | 0.00 | 0.00 | 0.00 | 38 | 1021.4 |
| 20260506145942 | 10 | 277 | 0.0 | 4.8 | 0.00 | 0.00 | 0.00 | 38 | 1021.3 |
| 20260506145438 | 10 | 316 | 0.0 | 1.6 | 0.00 | 0.00 | 0.00 | 40 | 1021.3 |
| 20260506144936 | 10 | 282 | 1.6 | 1.6 | 0.00 | 0.00 | 0.00 | 41 | 1021.3 |
| 20260506144432 | 10 | 318 | 0.0 | 1.6 | 0.00 | 0.00 | 0.00 | 42 | 1021.3 |
| 20260506143931 | 10 | 332 | 0.0 | 1.6 | 0.00 | 0.00 | 0.00 | 42 | 1021.0 |
| 20260506143427 | 9 | 292 | 0.0 | 1.6 | 0.00 | 0.00 | 0.00 | 45 | 1021.3 |
| 20260506142926 | 8 | 282 | 1.6 | 3.2 | 0.00 | 0.00 | 0.00 | 46 | 1021.2 |
| 20260506142423 | 9 | 356 | 0.0 | 1.6 | 0.00 | 0.00 | 0.00 | 48 | 1021.3 |
| 20260506141921 | 9 | 83 | 0.0 | 0.0 | 0.00 | 0.00 | 0.00 | 45 | 1021.3 |
| 20260506141419 | 8 | 91 | 0.0 | 0.0 | 0.00 | 0.00 | 0.00 | 46 | 1021.4 |
| 20260506140917 | 8 | 105 | 1.6 | 3.2 | 0.00 | 0.00 | 0.00 | 44 | 1021.2 |
| 20260506140413 | 8 | 325 | 1.6 | 1.6 | 0.00 | 0.00 | 0.00 | 55 | 1021.2 |